DW7918 Weather Reports


Display with metric or nautical units.
time (UTC)temp
F
wind
direction
speed
MPH
gust
MPH
rain 1hr
in
rain 24hr
in
rain mn
in
humidity
%
barometer
mb
20260905193803 76 180 4.0 10.0 0.00 0.18 0.18 73 1014.9
20260905193603 76 180 4.0 10.0 0.00 0.18 0.18 73 1014.9
20260905193403 76 182 4.0 10.0 0.00 0.18 0.18 72 1014.9
20260905193203 76 183 4.0 10.0 0.00 0.18 0.18 72 1014.9
20260905193024 76 184 4.0 10.0 0.00 0.18 0.18 73 1014.9
20260905192803 76 183 4.0 7.0 0.00 0.18 0.18 73 1014.9
20260905192603 76 184 4.0 7.0 0.00 0.18 0.18 73 1014.9
20260905192403 76 181 4.0 6.0 0.00 0.18 0.18 73 1015.0
20260905192203 76 180 3.0 6.0 0.00 0.18 0.18 73 1015.0
20260905192003 76 179 3.0 6.0 0.00 0.18 0.18 73 1015.0
20260905191803 76 179 3.0 7.0 0.00 0.18 0.18 73 1015.0
20260905191603 76 178 3.0 7.0 0.00 0.18 0.18 73 1015.0
20260905191403 76 179 4.0 7.0 0.00 0.18 0.18 74 1015.1
20260905191203 76 179 4.0 7.0 0.00 0.18 0.18 73 1015.1
20260905191003 76 180 5.0 10.0 0.00 0.18 0.18 73 1015.1
20260905190803 76 180 5.0 10.0 0.00 0.18 0.18 73 1015.0
20260905190603 76 180 5.0 10.0 0.00 0.18 0.18 73 1015.0
20260905190403 76 181 5.0 10.0 0.00 0.18 0.18 73 1015.0
20260905190203 76 182 5.0 10.0 0.00 0.18 0.18 72 1015.0
20260905190003 76 180 5.0 9.0 0.00 0.18 0.18 73 1015.0
20260905185824 76 178 4.0 9.0 0.00 0.18 0.18 73 1015.0
20260905185603 77 177 4.0 9.0 0.00 0.18 0.18 73 1015.0
20260905185403 77 176 4.0 8.0 0.00 0.18 0.18 72 1015.0
20260905185203 77 174 4.0 8.0 0.00 0.18 0.18 73 1015.0
20260905185003 77 175 4.0 8.0 0.00 0.18 0.18 73 1015.0
20260905184803 77 178 4.0 9.0 0.00 0.18 0.18 72 1015.0
20260905184603 77 179 4.0 9.0 0.00 0.18 0.18 72 1015.0
20260905184403 77 179 4.0 9.0 0.00 0.18 0.18 72 1015.0
20260905184203 77 181 3.0 9.0 0.00 0.18 0.18 72 1015.0
20260905184003 77 182 3.0 9.0 0.00 0.18 0.18 71 1015.0
20260905183803 77 184 3.0 5.0 0.00 0.18 0.18 71 1015.0
20260905183603 77 183 2.0 5.0 0.00 0.18 0.18 71 1015.0
20260905183424 77 182 2.0 5.0 0.00 0.18 0.18 72 1015.0
20260905183203 77 180 3.0 5.0 0.00 0.18 0.18 71 1015.0
20260905183003 77 180 3.0 7.0 0.00 0.18 0.18 71 1015.0
20260905182803 77 172 3.0 7.0 0.00 0.18 0.18 71 1015.0
20260905182603 77 172 4.0 7.0 0.00 0.18 0.18 71 1015.0
20260905182424 77 172 4.0 7.0 0.00 0.18 0.18 71 1015.0
20260905182203 78 173 4.0 7.0 0.00 0.18 0.18 70 1015.0
20260905182003 78 168 4.0 7.0 0.00 0.18 0.18 70 1015.0
20260905181803 78 174 3.0 7.0 0.00 0.18 0.18 70 1015.0
20260905181603 78 176 3.0 7.0 0.00 0.18 0.18 70 1015.1
20260905181403 78 178 2.0 6.0 0.00 0.18 0.18 69 1015.1
20260905181203 78 178 2.0 6.0 0.00 0.18 0.18 70 1015.1
20260905181024 78 181 2.0 5.0 0.00 0.18 0.18 69 1015.1
20260905180824 78 175 2.0 5.0 0.00 0.18 0.18 69 1015.0
20260905180624 78 173 2.0 8.0 0.00 0.18 0.18 68 1015.0
20260905180403 78 171 3.0 8.0 0.00 0.18 0.18 68 1015.0
20260905180203 78 170 3.0 8.0 0.00 0.19 0.18 69 1015.0
20260905180004 79 173 3.0 8.0 0.00 0.19 0.18 69 1015.0
20260905175803 79 174 2.0 8.0 0.00 0.19 0.18 69 1015.0
20260905175603 79 181 1.0 7.0 0.00 0.19 0.18 69 1014.9
20260905175404 79 184 1.0 4.0 0.00 0.19 0.18 68 1015.0
20260905175203 79 162 1.0 3.0 0.00 0.19 0.18 69 1015.0
20260905175003 79 141 1.0 3.0 0.00 0.19 0.18 69 1015.1
20260905174803 78 134 1.0 3.0 0.00 0.19 0.18 69 1015.0
20260905174603 78 138 2.0 5.0 0.00 0.19 0.18 70 1015.0
20260905174403 78 148 2.0 6.0 0.00 0.19 0.18 71 1015.0
20260905174203 78 155 2.0 6.0 0.00 0.19 0.18 71 1015.0
20260905174003 78 166 2.0 6.0 0.00 0.19 0.18 70 1014.9
20260905173803 78 175 3.0 7.0 0.00 0.19 0.18 70 1015.0
20260905173603 78 180 2.0 7.0 0.00 0.19 0.18 70 1015.0
20260905173403 78 181 2.0 7.0 0.00 0.19 0.18 70 1015.0
20260905173203 78 180 2.0 7.0 0.00 0.19 0.18 69 1015.1
20260905173003 78 180 1.0 7.0 0.00 0.19 0.18 69 1015.1
20260905172803 78 187 0.0 4.0 0.00 0.19 0.18 69 1015.2
20260905172603 78 184 0.0 3.0 0.00 0.19 0.18 69 1015.2
20260905172403 78 166 1.0 4.0 0.00 0.19 0.18 70 1015.3
20260905172224 78 170 1.0 5.0 0.00 0.19 0.18 69 1015.3
20260905172003 78 171 1.0 5.0 0.00 0.19 0.18 69 1015.3
20260905171803 78 201 1.0 5.0 0.00 0.19 0.18 69 1015.3
20260905171603 78 257 1.0 5.0 0.00 0.19 0.18 69 1015.3
20260905171403 78 277 1.0 5.0 0.00 0.20 0.18 70 1015.3
20260905171203 78 287 1.0 5.0 0.00 0.20 0.18 70 1015.3
20260905171024 78 284 1.0 5.0 0.00 0.20 0.18 70 1015.3
20260905170803 78 258 1.0 5.0 0.00 0.20 0.18 71 1015.3
20260905170603 78 214 1.0 5.0 0.00 0.20 0.18 71 1015.3
20260905170403 77 218 1.0 5.0 0.00 0.20 0.18 71 1015.4
20260905170203 77 188 2.0 5.0 0.00 0.21 0.18 72 1015.4
20260905170003 77 183 2.0 5.0 0.00 0.22 0.18 71 1015.4
20260905165803 77 225 2.0 4.0 0.00 0.24 0.18 72 1015.4
20260905165603 77 234 2.0 4.0 0.00 0.32 0.18 72 1015.3
20260905165424 77 258 2.0 5.0 0.00 0.37 0.18 72 1015.3
20260905165224 76 293 1.0 5.0 0.00 0.38 0.18 72 1015.3
20260905165003 76 291 1.0 5.0 0.00 0.42 0.18 74 1015.4
20260905164803 76 282 1.0 5.0 0.00 0.44 0.18 74 1015.4
20260905164603 75 274 1.0 5.0 0.00 0.44 0.18 75 1015.4
20260905164403 75 223 1.0 4.0 0.00 0.44 0.18 75 1015.4
20260905164203 75 196 1.0 7.0 0.00 0.44 0.18 74 1015.4
20260905164024 75 194 2.0 7.0 0.00 0.44 0.18 75 1015.4
20260905163803 74 181 2.0 7.0 0.00 0.44 0.18 75 1015.3
20260905163603 74 181 2.0 7.0 0.00 0.44 0.18 75 1015.3
20260905163403 74 181 2.0 7.0 0.00 0.44 0.18 75 1015.3
20260905163203 74 182 2.0 7.0 0.00 0.44 0.18 75 1015.2
20260905163003 74 182 1.0 7.0 0.00 0.44 0.18 75 1015.4
20260905162803 74 184 1.0 5.0 0.00 0.44 0.18 74 1015.4
20260905162603 74 185 1.0 4.0 0.00 0.44 0.18 75 1015.4
20260905162424 74 186 1.0 5.0 0.00 0.44 0.18 75 1015.4
20260905162203 74 185 2.0 5.0 0.00 0.44 0.18 75 1015.4
20260905162003 74 181 2.0 5.0 0.00 0.44 0.18 75 1015.3
20260905161803 74 180 3.0 5.0 0.00 0.44 0.18 75 1015.3
20260905161603 74 180 3.0 5.0 0.00 0.44 0.18 75 1015.3
20260905161424 74 179 3.0 6.0 0.00 0.44 0.18 75 1015.3
20260905161203 74 178 2.0 6.0 0.00 0.44 0.18 75 1015.3
20260905161003 74 180 2.0 6.0 0.00 0.44 0.18 75 1015.4
20260905160803 75 184 1.0 6.0 0.00 0.44 0.18 74 1015.3
20260905160603 75 185 1.0 6.0 0.00 0.44 0.18 74 1015.3
20260905160403 75 189 1.0 5.0 0.00 0.44 0.18 74 1015.3
20260905160203 75 190 1.0 5.0 0.00 0.44 0.18 74 1015.3
20260905160003 75 189 1.0 5.0 0.00 0.44 0.18 74 1015.3
20260905155803 75 187 1.0 4.0 0.00 0.44 0.18 75 1015.3
20260905155603 74 181 1.0 7.0 0.00 0.44 0.18 74 1015.3
20260905155403 74 182 1.0 7.0 0.00 0.44 0.18 74 1015.3
20260905155224 74 195 1.0 7.0 0.00 0.44 0.18 75 1015.3
20260905155003 74 196 1.0 7.0 0.00 0.44 0.18 74 1015.3
20260905154824 74 189 2.0 7.0 0.00 0.44 0.18 74 1015.3
20260905154603 74 225 2.0 6.0 0.00 0.44 0.18 75 1015.2
20260905154403 74 209 2.0 6.0 0.00 0.44 0.18 75 1015.2
20260905154203 74 193 1.0 6.0 0.00 0.44 0.18 75 1015.3
20260905154003 74 195 1.0 6.0 0.00 0.44 0.18 75 1015.4
20260905153803 74 197 1.0 5.0 0.00 0.44 0.18 75 1015.4
20260905153624 74 185 1.0 5.0 0.00 0.44 0.18 75 1015.3
20260905153424 74 185 1.0 5.0 0.00 0.44 0.18 77 1015.3
20260905153204 73 186 2.0 8.0 0.00 0.44 0.18 76 1015.3
20260905153024 73 188 3.0 8.0 0.00 0.44 0.18 76 1015.3
20260905152803 73 192 3.0 8.0 0.00 0.44 0.18 77 1015.2
20260905152603 73 190 3.0 8.0 0.00 0.44 0.18 76 1015.1
20260905152403 73 189 2.0 8.0 0.00 0.44 0.18 76 1015.2
20260905152203 73 184 2.0 6.0 0.00 0.44 0.18 76 1015.3
20260905152024 73 183 2.0 6.0 0.00 0.44 0.18 76 1015.3
20260905151803 73 175 1.0 6.0 0.00 0.44 0.18 76 1015.4
20260905151603 73 175 1.0 5.0 0.00 0.44 0.18 76 1015.4
20260905151403 73 177 1.0 5.0 0.00 0.44 0.18 76 1015.3
20260905151203 73 184 1.0 4.0 0.00 0.44 0.18 76 1015.3
20260905151024 73 197 1.0 6.0 0.00 0.44 0.18 77 1015.3
20260905150803 73 197 1.0 6.0 0.00 0.44 0.18 77 1015.3
20260905150603 73 197 1.0 6.0 0.00 0.44 0.18 77 1015.2
20260905150403 73 193 1.0 6.0 0.00 0.44 0.18 77 1015.1
20260905150203 73 206 1.0 6.0 0.00 0.44 0.18 77 1015.1
20260905150003 73 183 1.0 4.0 0.00 0.44 0.18 77 1015.0
20260905145803 73 182 1.0 4.0 0.00 0.44 0.18 77 1015.0
20260905145624 73 181 1.0 5.0 0.00 0.44 0.18 77 1015.0
20260905145424 72 179 2.0 5.0 0.00 0.44 0.18 77 1015.0
20260905145203 72 180 2.0 5.0 0.00 0.44 0.18 78 1014.9
20260905145003 72 179 3.0 6.0 0.00 0.44 0.18 78 1015.0
20260905144803 72 176 3.0 6.0 0.00 0.44 0.18 78 1015.0
20260905144603 72 177 3.0 6.0 0.00 0.44 0.18 78 1015.0
20260905144403 72 179 2.0 6.0 0.00 0.44 0.18 78 1015.0
20260905144203 72 177 2.0 6.0 0.00 0.44 0.18 78 1015.0
20260905144003 72 179 1.0 6.0 0.00 0.44 0.18 78 1015.0
20260905143803 72 193 1.0 6.0 0.00 0.44 0.18 78 1015.1
20260905143603 72 197 1.0 3.0 0.00 0.44 0.18 80 1015.0
20260905143403 72 187 1.0 3.0 0.00 0.45 0.18 79 1015.1
20260905143224 72 186 1.0 5.0 0.00 0.45 0.18 80 1015.0
20260905143024 72 182 2.0 6.0 0.00 0.45 0.18 80 1015.0
20260905142803 71 182 2.0 8.0 0.00 0.46 0.18 80 1015.0
20260905142603 71 183 2.0 8.0 0.00 0.47 0.18 80 1015.0
20260905142403 71 181 2.0 8.0 0.00 0.48 0.18 79 1015.0
20260905142203 71 180 2.0 8.0 0.00 0.49 0.18 80 1015.0
20260905142003 71 182 2.0 8.0 0.00 0.52 0.18 81 1015.0
20260905141803 71 183 3.0 7.0 0.00 0.54 0.18 81 1015.0
20260905141624 71 182 3.0 7.0 0.00 0.54 0.18 81 1015.0
20260905141403 71 182 3.0 7.0 0.00 0.54 0.18 81 1015.0
20260905141203 70 182 3.0 7.0 0.00 0.54 0.18 80 1014.9
20260905141024 71 182 2.0 5.0 0.00 0.54 0.18 81 1014.9
20260905140824 70 181 2.0 5.0 0.00 0.54 0.18 81 1014.9
20260905140603 70 179 1.0 5.0 0.00 0.54 0.18 81 1014.8
20260905140403 70 181 1.0 5.0 0.00 0.54 0.18 82 1014.8
20260905140203 70 181 1.0 4.0 0.00 0.54 0.18 82 1014.8
20260905140004 70 181 1.0 4.0 0.00 0.54 0.18 82 1014.8
20260905135803 70 181 1.0 4.0 0.00 0.54 0.18 82 1014.8
20260905135603 70 181 1.0 4.0 0.00 0.54 0.18 82 1014.8
20260905135403 70 180 1.0 4.0 0.00 0.54 0.18 82 1014.8
20260905135203 70 179 1.0 3.0 0.00 0.54 0.18 82 1014.8
20260905135003 70 179 1.0 4.0 0.00 0.54 0.18 82 1014.8
20260905134803 70 181 1.0 4.0 0.00 0.54 0.18 82 1014.8
20260905134603 70 181 1.0 4.0 0.00 0.54 0.18 82 1014.8
20260905134403 70 182 1.0 4.0 0.00 0.54 0.18 82 1014.8
20260905134203 70 183 1.0 4.0 0.00 0.54 0.18 82 1014.7
20260905134003 70 184 1.0 4.0 0.00 0.54 0.18 82 1014.7
20260905133803 70 185 1.0 4.0 0.00 0.54 0.18 82 1014.7
20260905133603 69 186 2.0 5.0 0.00 0.54 0.18 82 1014.7
20260905133403 69 186 2.0 5.0 0.00 0.54 0.18 82 1014.7
20260905133203 69 185 2.0 5.0 0.00 0.54 0.18 82 1014.7
20260905133024 69 184 2.0 5.0 0.00 0.54 0.18 82 1014.7
20260905132803 69 183 2.0 5.0 0.00 0.54 0.18 82 1014.7
20260905132603 69 182 2.0 5.0 0.00 0.54 0.18 82 1014.7
20260905132424 69 181 2.0 5.0 0.00 0.54 0.18 82 1014.7
20260905132203 69 182 2.0 5.0 0.00 0.54 0.18 82 1014.7
20260905132003 69 184 2.0 5.0 0.00 0.54 0.18 82 1014.7
20260905131803 69 185 1.0 5.0 0.00 0.54 0.18 82 1014.7
20260905131603 69 186 1.0 4.0 0.00 0.54 0.18 82 1014.7
20260905131403 69 188 1.0 5.0 0.00 0.54 0.18 82 1014.7
20260905131203 69 188 1.0 7.0 0.00 0.54 0.18 82 1014.7
20260905131003 69 188 1.0 7.0 0.00 0.54 0.18 82 1014.7
20260905130803 69 184 2.0 7.0 0.00 0.54 0.18 82 1014.7
20260905130624 69 184 2.0 7.0 0.00 0.54 0.18 82 1014.7
20260905130403 69 184 2.0 7.0 0.00 0.54 0.18 82 1014.7
20260905130203 69 183 3.0 7.0 0.00 0.54 0.18 82 1014.8
20260905130003 69 184 4.0 7.0 0.00 0.55 0.18 82 1014.8
20260905125803 69 186 4.0 7.0 0.00 0.55 0.18 82 1014.8
20260905125603 69 187 3.0 7.0 0.00 0.55 0.18 82 1014.8
20260905125403 69 186 4.0 9.0 0.00 0.55 0.18 82 1014.8
20260905125203 69 182 4.0 9.0 0.00 0.55 0.18 82 1014.8
20260905125003 69 182 3.0 9.0 0.00 0.55 0.18 82 1014.8
20260905124803 69 179 4.0 9.0 0.00 0.55 0.18 82 1014.8
20260905124603 69 177 3.0 9.0 0.00 0.55 0.18 82 1014.8
20260905124403 69 174 2.0 8.0 0.00 0.55 0.18 82 1014.7
20260905124203 69 181 2.0 8.0 0.00 0.55 0.18 82 1014.7
20260905124003 69 180 2.0 6.0 0.00 0.55 0.18 82 1014.7
20260905123803 69 183 2.0 6.0 0.00 0.57 0.18 82 1014.7
20260905123603 69 184 2.0 5.0 0.00 0.58 0.18 82 1014.7
20260905123403 69 182 3.0 5.0 0.00 0.59 0.18 82 1014.7
20260905123203 69 180 3.0 5.0 0.00 0.59 0.18 82 1014.7
20260905123003 69 180 3.0 7.0 0.00 0.59 0.18 82 1014.7
20260905122803 69 180 3.0 7.0 0.00 0.59 0.18 82 1014.6
20260905122603 69 181 3.0 7.0 0.00 0.59 0.18 82 1014.6
20260905122403 69 183 3.0 7.0 0.00 0.59 0.18 82 1014.6
20260905122224 69 183 3.0 7.0 0.00 0.59 0.18 82 1014.6
20260905122003 68 182 3.0 7.0 0.00 0.59 0.18 82 1014.6
20260905121824 68 183 3.0 7.0 0.00 0.59 0.18 82 1014.5
20260905121603 68 183 2.0 6.0 0.00 0.59 0.18 82 1014.5
20260905121403 68 182 1.0 6.0 0.00 0.59 0.18 82 1014.5
20260905121203 68 181 1.0 4.0 0.00 0.59 0.18 82 1014.3
20260905121003 68 183 0.0 3.0 0.00 0.59 0.18 82 1014.3
20260905120804 68 183 0.0 3.0 0.00 0.59 0.18 82 1014.3
20260905120603 68 0 0.0 0.0 0.00 0.59 0.18 82 1014.2
20260905120424 68 0 0.0 0.0 0.00 0.59 0.18 82 1014.2
20260905120203 68 0 0.0 0.0 0.00 0.59 0.18 82 1014.1
20260905120024 68 0 0.0 0.0 0.00 0.59 0.18 82 1014.0
20260905115803 68 183 0.0 2.0 0.00 0.59 0.18 82 1014.0
20260905115603 68 183 0.0 3.0 0.00 0.59 0.18 82 1014.0
20260905115424 68 183 0.0 3.0 0.00 0.59 0.18 82 1014.0
20260905115203 68 183 0.0 3.0 0.00 0.59 0.18 82 1014.0
20260905115003 68 183 0.0 3.0 0.00 0.59 0.18 82 1013.9
20260905114803 68 183 0.0 3.0 0.00 0.59 0.18 82 1014.0
20260905114603 68 0 0.0 0.0 0.00 0.59 0.18 82 1013.9
20260905114424 68 0 0.0 0.0 0.00 0.59 0.18 82 1014.0
20260905114203 68 0 0.0 0.0 0.00 0.59 0.18 82 1013.9
20260905114003 68 0 0.0 0.0 0.00 0.59 0.18 82 1013.9
20260905113803 68 0 0.0 0.0 0.00 0.59 0.18 82 1014.0
20260905113603 68 0 0.0 0.0 0.00 0.59 0.18 82 1014.0
20260905113403 68 0 0.0 0.0 0.00 0.59 0.18 82 1013.9
20260905113203 68 0 0.0 0.0 0.00 0.59 0.18 82 1013.9
20260905113003 68 188 0.0 2.0 0.00 0.59 0.18 82 1013.9
20260905112803 68 188 0.0 2.0 0.00 0.59 0.18 81 1013.9
20260905112603 68 187 1.0 2.0 0.00 0.59 0.18 82 1013.9
20260905112403 68 187 1.0 3.0 0.00 0.59 0.18 81 1013.9
20260905112203 68 187 1.0 3.0 0.00 0.59 0.18 81 1013.8
20260905112003 68 187 1.0 3.0 0.00 0.59 0.18 81 1013.8
20260905111824 68 187 1.0 3.0 0.00 0.59 0.18 81 1013.7
20260905111624 68 187 0.0 3.0 0.00 0.59 0.18 82 1013.6
20260905111403 68 187 0.0 3.0 0.00 0.59 0.18 82 1013.6
20260905111203 68 176 0.0 2.0 0.00 0.59 0.18 82 1013.5
20260905111003 68 176 0.0 2.0 0.00 0.59 0.18 81 1013.5
20260905110803 68 176 0.0 2.0 0.00 0.59 0.18 81 1013.4
20260905110603 68 176 0.0 2.0 0.00 0.59 0.18 81 1013.4
20260905110403 68 176 0.0 2.0 0.00 0.59 0.18 81 1013.4
20260905110224 68 176 1.0 2.0 0.00 0.59 0.18 81 1013.4
20260905110003 68 176 1.0 3.0 0.00 0.59 0.18 81 1013.4
20260905105824 68 176 1.0 3.0 0.00 0.59 0.18 81 1013.3
20260905105603 68 177 1.0 4.0 0.00 0.59 0.18 81 1013.3
20260905105403 68 179 1.0 4.0 0.00 0.59 0.18 81 1013.3
20260905105203 68 181 1.0 4.0 0.00 0.59 0.18 81 1013.3
20260905105003 68 183 1.0 4.0 0.00 0.59 0.18 81 1013.4
20260905104803 68 186 1.0 4.0 0.00 0.59 0.18 81 1013.4
20260905104603 68 188 1.0 4.0 0.00 0.59 0.18 81 1013.3
20260905104403 68 189 1.0 4.0 0.00 0.59 0.18 81 1013.4
20260905104203 68 189 1.0 4.0 0.00 0.59 0.18 81 1013.3
20260905104003 68 187 1.0 4.0 0.00 0.59 0.18 81 1013.4
20260905103803 68 187 2.0 4.0 0.00 0.59 0.18 81 1013.3
20260905103603 68 185 2.0 4.0 0.00 0.59 0.18 81 1013.3
20260905103403 68 180 2.0 4.0 0.00 0.59 0.18 81 1013.4
20260905103203 68 179 3.0 4.0 0.00 0.59 0.18 80 1013.4
20260905103003 68 178 2.0 5.0 0.00 0.59 0.18 80 1013.3
20260905102803 68 176 2.0 5.0 0.00 0.59 0.18 80 1013.4
20260905102603 68 175 1.0 5.0 0.00 0.59 0.18 80 1013.3
20260905102403 68 178 1.0 5.0 0.00 0.59 0.18 80 1013.3
20260905102203 68 179 0.0 5.0 0.00 0.59 0.18 80 1013.3
20260905102003 68 0 0.0 0.0 0.00 0.59 0.18 80 1013.2
20260905101803 68 0 0.0 0.0 0.00 0.59 0.18 80 1013.2
20260905101603 68 0 0.0 0.0 0.00 0.59 0.18 79 1013.2
20260905101424 68 0 0.0 0.0 0.00 0.59 0.18 79 1013.2
20260905101203 68 0 0.0 0.0 0.00 0.59 0.18 79 1013.1
20260905101003 68 0 0.0 0.0 0.00 0.59 0.18 79 1013.1
20260905100824 68 0 0.0 0.0 0.00 0.59 0.18 79 1013.1
20260905100603 68 0 0.0 0.0 0.00 0.59 0.18 79 1013.1
20260905100403 68 0 0.0 0.0 0.00 0.59 0.18 79 1013.1
20260905100203 68 0 0.0 0.0 0.00 0.59 0.18 79 1013.0
20260905100003 69 0 0.0 0.0 0.00 0.59 0.18 79 1013.1
20260905095803 69 0 0.0 0.0 0.00 0.59 0.18 79 1013.0
20260905095603 69 0 0.0 0.0 0.00 0.59 0.18 79 1013.1
20260905095403 69 0 0.0 0.0 0.00 0.59 0.18 79 1013.1
20260905095203 69 0 0.0 0.0 0.00 0.59 0.18 79 1013.1
20260905095003 69 0 0.0 0.0 0.00 0.59 0.18 79 1013.2
20260905094803 69 0 0.0 0.0 0.00 0.59 0.18 79 1013.3
20260905094603 69 0 0.0 0.0 0.00 0.59 0.18 79 1013.3
20260905094424 69 0 0.0 0.0 0.00 0.59 0.18 79 1013.4
20260905094203 69 0 0.0 0.0 0.00 0.59 0.18 79 1013.4
20260905094003 69 0 0.0 0.0 0.00 0.59 0.18 79 1013.5
20260905093803 69 0 0.0 0.0 0.00 0.59 0.18 79 1013.5
20260905093603 70 0 0.0 0.0 0.00 0.59 0.18 79 1013.5
20260905093403 70 0 0.0 0.0 0.00 0.59 0.18 79 1013.5
20260905093224 70 0 0.0 0.0 0.00 0.59 0.18 79 1013.5
20260905093003 70 0 0.0 0.0 0.00 0.59 0.18 79 1013.5
20260905092803 69 0 0.0 0.0 0.00 0.59 0.18 79 1013.5
20260905092603 69 0 0.0 0.0 0.00 0.59 0.18 79 1013.5
20260905092403 70 0 0.0 0.0 0.00 0.59 0.18 79 1013.4
20260905092203 69 0 0.0 0.0 0.00 0.59 0.18 79 1013.4
20260905092003 69 0 0.0 0.0 0.00 0.59 0.18 78 1013.4
20260905091803 69 0 0.0 0.0 0.00 0.59 0.18 78 1013.4
20260905091624 69 0 0.0 0.0 0.00 0.59 0.18 78 1013.5
20260905091403 69 0 0.0 0.0 0.00 0.59 0.18 78 1013.5
20260905091203 69 0 0.0 0.0 0.00 0.59 0.18 78 1013.5
20260905091024 69 0 0.0 0.0 0.00 0.59 0.18 78 1013.6
20260905090824 70 0 0.0 0.0 0.00 0.59 0.18 78 1013.6
20260905090603 70 0 0.0 0.0 0.00 0.59 0.18 78 1013.6
20260905090403 70 0 0.0 0.0 0.00 0.59 0.18 78 1013.7
20260905090203 70 0 0.0 0.0 0.00 0.59 0.18 78 1013.7
20260905090003 70 0 0.0 0.0 0.00 0.59 0.18 78 1013.7
20260905085803 70 0 0.0 0.0 0.00 0.59 0.18 78 1013.7
20260905085624 70 0 0.0 0.0 0.00 0.59 0.18 78 1013.7
20260905085403 70 0 0.0 0.0 0.00 0.59 0.18 78 1013.7
20260905085203 70 0 0.0 0.0 0.00 0.59 0.18 78 1013.8
20260905085003 70 0 0.0 0.0 0.01 0.59 0.18 78 1013.8
20260905084803 70 0 0.0 0.0 0.01 0.59 0.18 78 1013.9
20260905084603 70 0 0.0 0.0 0.01 0.59 0.18 78 1013.9
20260905084403 70 0 0.0 0.0 0.01 0.59 0.18 78 1013.9
20260905084203 70 0 0.0 0.0 0.01 0.59 0.18 78 1013.8
20260905084003 70 0 0.0 0.0 0.01 0.59 0.18 78 1013.8
20260905083824 70 0 0.0 0.0 0.01 0.59 0.18 78 1013.7
20260905083603 70 0 0.0 0.0 0.01 0.59 0.18 78 1013.7
20260905083403 70 0 0.0 0.0 0.01 0.59 0.18 79 1013.5
20260905083203 70 0 0.0 0.0 0.01 0.59 0.18 79 1013.5
20260905083003 70 0 0.0 0.0 0.01 0.59 0.18 79 1013.6
20260905082803 70 0 0.0 0.0 0.01 0.59 0.18 79 1013.6
20260905082624 70 0 0.0 0.0 0.01 0.59 0.18 79 1013.6
20260905082403 70 0 0.0 0.0 0.01 0.59 0.18 79 1013.6
20260905082203 70 0 0.0 0.0 0.01 0.59 0.18 79 1013.6
20260905082003 70 0 0.0 0.0 0.01 0.59 0.18 79 1013.5
20260905081803 70 0 0.0 0.0 0.01 0.59 0.18 79 1013.5
20260905081624 70 0 0.0 0.0 0.01 0.59 0.18 79 1013.5
20260905081424 70 0 0.0 0.0 0.01 0.59 0.18 79 1013.4
20260905081203 70 185 1.0 4.0 0.01 0.59 0.18 79 1013.4
20260905081003 70 183 1.0 4.0 0.01 0.59 0.18 79 1013.4
20260905080803 70 183 1.0 4.0 0.01 0.59 0.18 79 1013.4
20260905080624 70 183 1.0 4.0 0.01 0.59 0.18 79 1013.3
20260905080403 70 183 1.0 4.0 0.01 0.59 0.18 78 1013.2
20260905080203 70 178 0.0 4.0 0.01 0.59 0.18 79 1013.1
20260905080003 70 0 0.0 0.0 0.01 0.59 0.18 79 1013.1
20260905075803 70 0 0.0 0.0 0.01 0.59 0.18 79 1013.0
20260905075603 70 0 0.0 0.0 0.01 0.59 0.18 79 1012.8
20260905075403 70 0 0.0 0.0 0.01 0.59 0.18 79 1012.7
20260905075203 70 0 0.0 0.0 0.01 0.59 0.18 79 1012.7
20260905075003 70 165 0.0 2.0 0.00 0.58 0.17 79 1012.7
20260905074824 70 165 0.0 2.0 0.01 0.58 0.17 79 1012.6
20260905074603 70 165 1.0 2.0 0.01 0.58 0.17 78 1012.6
20260905074403 70 165 1.0 2.0 0.02 0.58 0.17 78 1012.6
20260905074203 70 165 1.0 2.0 0.02 0.58 0.17 78 1012.7
20260905074003 70 167 1.0 3.0 0.02 0.58 0.17 77 1012.6
20260905073803 70 167 1.0 3.0 0.02 0.58 0.17 77 1012.6
20260905073603 70 174 1.0 3.0 0.02 0.58 0.17 77 1012.6
20260905073403 70 179 2.0 5.0 0.02 0.58 0.17 77 1012.6
20260905073203 70 178 2.0 5.0 0.02 0.58 0.17 77 1012.6
20260905073003 70 177 2.0 5.0 0.02 0.58 0.17 77 1012.8
20260905072824 70 180 2.0 5.0 0.02 0.58 0.17 77 1012.8
20260905072603 70 180 2.0 5.0 0.02 0.58 0.17 77 1013.1
20260905072403 70 179 1.0 4.0 0.02 0.58 0.17 77 1013.1
20260905072203 70 181 1.0 3.0 0.02 0.58 0.17 77 1013.2
20260905072003 70 188 0.0 3.0 0.02 0.58 0.17 77 1013.2
20260905071803 70 186 0.0 3.0 0.02 0.58 0.17 77 1013.2
20260905071603 70 183 1.0 4.0 0.02 0.58 0.17 77 1013.2
20260905071403 70 184 1.0 4.0 0.03 0.58 0.17 77 1013.1
20260905071203 70 185 1.0 4.0 0.03 0.58 0.17 77 1013.1
20260905071003 70 186 2.0 5.0 0.03 0.58 0.17 77 1013.1
20260905070803 70 186 1.0 5.0 0.03 0.58 0.17 77 1013.1
20260905070603 70 187 1.0 5.0 0.04 0.58 0.17 77 1013.2
20260905070403 71 188 1.0 5.0 0.04 0.58 0.17 77 1013.3
20260905070203 71 189 0.0 5.0 0.04 0.58 0.17 76 1013.3
20260905070003 71 186 0.0 3.0 0.04 0.58 0.17 77 1013.2
20260905065803 71 0 0.0 0.0 0.04 0.58 0.17 77 1013.4
20260905065624 71 0 0.0 0.0 0.04 0.58 0.17 77 1013.5
20260905065424 71 0 0.0 0.0 0.04 0.58 0.17 77 1013.6
20260905065224 71 0 0.0 0.0 0.04 0.58 0.17 77 1013.6
20260905065003 71 0 0.0 0.0 0.04 0.58 0.17 77 1013.8
20260905064803 71 50 0.0 3.0 0.03 0.57 0.16 76 1014.2
20260905064603 70 45 0.0 3.0 0.03 0.57 0.16 76 1014.3
20260905064424 71 75 1.0 4.0 0.02 0.56 0.16 76 1014.5
20260905064224 71 58 1.0 4.0 0.02 0.56 0.15 76 1014.7
20260905064003 71 54 1.0 4.0 0.02 0.56 0.15 75 1015.0
20260905063803 71 42 1.0 4.0 0.02 0.56 0.15 75 1015.0
20260905063603 71 41 1.0 4.0 0.02 0.56 0.15 75 1015.0
20260905063403 71 19 1.0 4.0 0.02 0.56 0.15 75 1015.1
20260905063203 71 14 0.0 4.0 0.02 0.56 0.15 75 1015.1
20260905063003 71 2 0.0 4.0 0.02 0.56 0.15 75 1015.1
20260905062803 71 359 0.0 2.0 0.02 0.56 0.15 75 1015.0
20260905062603 71 0 0.0 0.0 0.02 0.56 0.15 75 1015.0
20260905062403 71 0 0.0 0.0 0.02 0.56 0.15 75 1015.0
20260905062203 71 0 0.0 0.0 0.02 0.56 0.15 75 1014.7
20260905062003 71 0 0.0 0.0 0.02 0.56 0.15 76 1014.3
20260905061803 71 0 0.0 0.0 0.03 0.56 0.15 75 1014.1
20260905061603 71 0 0.0 0.0 0.03 0.56 0.15 75 1013.6
20260905061403 71 0 0.0 0.0 0.02 0.55 0.14 75 1013.2
20260905061203 71 0 0.0 0.0 0.02 0.55 0.14 75 1013.2
20260905061003 71 0 0.0 0.0 0.02 0.55 0.14 74 1013.4
20260905060803 71 0 0.0 0.0 0.02 0.55 0.14 75 1013.5
20260905060603 71 0 0.0 0.0 0.01 0.54 0.13 75 1013.5
20260905060403 71 0 0.0 0.0 0.01 0.54 0.13 74 1013.7
20260905060203 71 0 0.0 0.0 0.01 0.54 0.13 75 1013.9
20260905060003 71 0 0.0 0.0 0.02 0.54 0.13 75 1014.2
20260905055803 71 0 0.0 0.0 0.03 0.54 0.13 75 1014.3
20260905055603 71 0 0.0 0.0 0.05 0.54 0.13 75 1014.2
20260905055424 71 0 0.0 0.0 0.07 0.54 0.13 75 1014.2
20260905055203 71 0 0.0 0.0 0.08 0.54 0.13 75 1014.2
20260905055024 71 0 0.0 0.0 0.09 0.54 0.13 74 1014.2
20260905054824 71 0 0.0 0.0 0.09 0.54 0.13 74 1014.2
20260905054603 71 0 0.0 0.0 0.11 0.54 0.13 74 1014.0
20260905054403 71 0 0.0 0.0 0.11 0.54 0.13 74 1013.9
20260905054245 71 0 0.0 0.0 0.11 0.54 0.13 74 1013.9
20260905054024 71 0 0.0 0.0 0.11 0.54 0.13 74 1014.1
20260905053803 71 0 0.0 0.0 0.11 0.54 0.13 74 1014.1
20260905053603 71 170 0.0 4.0 0.11 0.54 0.13 74 1013.8
20260905053424 71 170 0.0 4.0 0.11 0.54 0.13 73 1013.6
20260905053203 71 172 0.0 4.0 0.12 0.54 0.13 72 1013.5
20260905053003 71 175 0.0 4.0 0.12 0.54 0.13 72 1013.4
20260905052803 71 173 1.0 4.0 0.13 0.54 0.13 72 1013.4
20260905052624 71 174 1.0 6.0 0.13 0.54 0.13 72 1013.4
20260905052403 71 173 1.0 6.0 0.13 0.54 0.13 71 1013.3
20260905052203 71 172 1.0 6.0 0.13 0.54 0.13 71 1013.4
20260905052003 72 171 1.0 6.0 0.13 0.54 0.13 70 1013.8
20260905051803 72 171 0.0 6.0 0.12 0.53 0.12 70 1014.1
20260905051603 72 0 0.0 0.0 0.12 0.53 0.12 70 1014.2
20260905051403 72 198 0.0 3.0 0.12 0.53 0.12 70 1014.8
20260905051203 72 193 0.0 4.0 0.12 0.53 0.12 70 1015.4
20260905051003 72 193 0.0 4.0 0.12 0.53 0.12 70 1015.4
20260905050603 72 189 1.0 6.0 0.12 0.53 0.12 69 1015.4
20260905050403 72 123 2.0 17.0 0.12 0.53 0.12 69 1015.4
20260905050203 72 103 4.0 17.0 0.12 0.53 0.12 69 1015.2
20260905050003 72 102 5.0 17.0 0.11 0.52 0.11 69 1014.9
20260905045803 72 104 5.0 17.0 0.10 0.51 0.10 68 1015.0
20260905045603 72 103 5.0 17.0 0.08 0.49 0.08 70 1015.8
20260905045403 73 115 4.0 14.0 0.06 0.47 0.06 71 1015.3
20260905045203 73 152 3.0 14.0 0.05 0.46 0.05 71 1014.3
20260905045003 73 185 3.0 7.0 0.04 0.45 0.04 71 1014.0
20260905044803 73 186 2.0 7.0 0.04 0.45 0.04 70 1013.9
20260905044603 73 189 2.0 7.0 0.02 0.43 0.03 71 1014.1
20260905044424 73 192 2.0 7.0 0.02 0.43 0.02 71 1014.2
20260905044203 73 184 2.0 5.0 0.02 0.43 0.02 71 1014.0
20260905044003 73 117 3.0 10.0 0.02 0.43 0.02 71 1014.0
20260905043803 73 101 4.0 10.0 0.02 0.43 0.02 72 1014.0
20260905043610 73 104 4.0 10.0 0.02 0.43 0.02 72 1014.3
20260905043403 73 110 4.0 10.0 0.02 0.43 0.02 71 1014.6
20260905043203 73 117 4.0 10.0 0.01 0.42 0.02 71 1014.6
20260905043003 73 137 2.0 9.0 0.01 0.42 0.01 71 1014.5
20260905042803 73 170 2.0 4.0 0.00 0.41 0.00 71 1014.2
20260905042603 73 186 1.0 4.0 0.00 0.41 0.00 71 1014.0
20260905042403 73 187 1.0 4.0 0.00 0.41 0.00 70 1013.9
20260905042203 73 186 0.0 4.0 0.00 0.41 0.00 70 1014.0
20260905042003 73 0 0.0 0.0 0.00 0.41 0.00 70 1014.0
20260905041803 74 0 0.0 0.0 0.00 0.41 0.00 70 1014.1
20260905041604 74 0 0.0 0.0 0.00 0.41 0.00 70 1014.1
20260905041403 74 0 0.0 0.0 0.00 0.41 0.00 70 1014.0
20260905041203 74 0 0.0 0.0 0.00 0.41 0.00 70 1014.0
20260905041003 74 0 0.0 0.0 0.00 0.41 0.00 70 1014.0
20260905040824 74 200 0.0 3.0 0.00 0.41 0.00 70 1014.0
20260905040603 74 116 1.0 6.0 0.00 0.41 0.00 71 1014.1
20260905040403 73 104 1.0 6.0 0.00 0.41 0.00 71 1014.1
20260905040203 73 100 1.0 6.0 0.00 0.41 0.00 71 1014.1
20260905040024 73 100 1.0 6.0 0.00 0.41 0.00 70 1014.3
20260905035803 73 96 1.0 6.0 0.00 0.41 0.41 70 1014.6
20260905035603 74 95 1.0 6.0 0.00 0.41 0.41 70 1014.3
20260905035403 74 92 0.0 6.0 0.00 0.41 0.41 70 1014.2
20260905035224 74 0 0.0 0.0 0.00 0.41 0.41 70 1014.1
20260905035024 74 0 0.0 0.0 0.00 0.41 0.41 70 1014.1
20260905034824 74 77 0.0 1.0 0.00 0.41 0.41 71 1014.2
20260905034603 74 77 0.0 1.0 0.00 0.41 0.41 71 1014.3
20260905034403 73 77 0.0 1.0 0.00 0.41 0.41 71 1014.3
20260905034203 73 77 0.0 1.0 0.00 0.41 0.41 70 1014.4
20260905034003 74 77 0.0 1.0 0.00 0.41 0.41 70 1014.5
20260905033824 74 0 0.0 0.0 0.00 0.41 0.41 70 1014.5
20260905033603 74 0 0.0 0.0 0.00 0.41 0.41 71 1014.4
20260905033403 74 0 0.0 0.0 0.00 0.41 0.41 70 1014.3
20260905033203 74 0 0.0 0.0 0.00 0.41 0.41 70 1014.5
20260905033003 74 0 0.0 0.0 0.00 0.41 0.41 70 1014.5
20260905032803 74 0 0.0 0.0 0.00 0.41 0.41 70 1014.5
20260905032603 74 0 0.0 0.0 0.00 0.41 0.41 70 1014.6
20260905032403 74 0 0.0 0.0 0.00 0.41 0.41 70 1014.6
20260905032224 74 0 0.0 0.0 0.00 0.41 0.41 70 1014.6
20260905032024 74 0 0.0 0.0 0.00 0.41 0.41 71 1014.6
20260905031803 74 0 0.0 0.0 0.00 0.41 0.41 70 1014.6
20260905031603 74 0 0.0 0.0 0.00 0.41 0.41 70 1014.7
20260905031424 74 0 0.0 0.0 0.00 0.41 0.41 70 1014.7
20260905031203 74 0 0.0 0.0 0.00 0.41 0.41 70 1014.8
20260905031024 74 0 0.0 0.0 0.00 0.41 0.41 70 1014.8
20260905030803 74 0 0.0 0.0 0.00 0.41 0.41 70 1014.9
20260905030624 74 0 0.0 0.0 0.00 0.41 0.41 70 1014.8
20260905030403 74 0 0.0 0.0 0.00 0.41 0.41 70 1014.9
20260905030203 74 0 0.0 0.0 0.00 0.41 0.41 70 1014.9
20260905030003 74 0 0.0 0.0 0.00 0.41 0.41 70 1014.9
20260905025803 74 0 0.0 0.0 0.00 0.41 0.41 70 1014.9
20260905025603 74 0 0.0 0.0 0.00 0.41 0.41 70 1014.9
20260905025403 74 0 0.0 0.0 0.00 0.41 0.41 70 1015.0
20260905025203 74 0 0.0 0.0 0.00 0.41 0.41 70 1014.9
20260905025004 74 0 0.0 0.0 0.00 0.41 0.41 70 1014.9
20260905024803 74 0 0.0 0.0 0.00 0.41 0.41 70 1014.9
20260905024603 74 0 0.0 0.0 0.00 0.41 0.41 70 1015.0
20260905024403 74 0 0.0 0.0 0.00 0.41 0.41 70 1015.0
20260905024203 74 0 0.0 0.0 0.00 0.41 0.41 70 1015.0
20260905024003 74 0 0.0 0.0 0.00 0.41 0.41 70 1014.9
20260905023803 74 0 0.0 0.0 0.00 0.41 0.41 69 1014.9
20260905023603 74 0 0.0 0.0 0.00 0.41 0.41 69 1014.9
20260905023403 74 0 0.0 0.0 0.00 0.41 0.41 69 1014.9
20260905023203 74 0 0.0 0.0 0.00 0.41 0.41 69 1015.0
20260905023003 74 0 0.0 0.0 0.00 0.41 0.41 69 1014.9
20260905022803 74 0 0.0 0.0 0.00 0.41 0.41 69 1014.9
20260905022624 74 0 0.0 0.0 0.00 0.41 0.41 69 1014.9
20260905022403 74 0 0.0 0.0 0.00 0.41 0.41 69 1014.9
20260905022203 74 188 0.0 4.0 0.00 0.41 0.41 69 1015.0
20260905022003 74 188 0.0 4.0 0.00 0.41 0.41 69 1015.0
20260905021803 74 188 0.0 4.0 0.00 0.41 0.41 69 1014.8
20260905021603 74 188 0.0 4.0 0.00 0.41 0.41 69 1014.7
20260905021404 74 188 0.0 4.0 0.00 0.41 0.41 69 1014.8
20260905021203 74 0 0.0 0.0 0.00 0.41 0.41 69 1014.8
20260905021003 74 0 0.0 0.0 0.00 0.41 0.41 69 1014.8
20260905020803 74 0 0.0 0.0 0.00 0.41 0.41 69 1014.8
20260905020624 74 0 0.0 0.0 0.00 0.41 0.41 69 1014.8
20260905020403 74 0 0.0 0.0 0.00 0.41 0.41 69 1014.7
20260905020203 74 0 0.0 0.0 0.00 0.41 0.41 69 1014.6
20260905020003 74 0 0.0 0.0 0.00 0.41 0.41 69 1014.6
20260905015803 74 0 0.0 0.0 0.00 0.41 0.41 69 1014.7
20260905015603 74 0 0.0 0.0 0.00 0.41 0.41 68 1014.8
20260905015403 75 0 0.0 0.0 0.00 0.41 0.41 68 1014.9
20260905015203 75 0 0.0 0.0 0.00 0.41 0.41 68 1014.9
20260905015003 75 0 0.0 0.0 0.00 0.41 0.41 69 1014.8
20260905014803 75 0 0.0 0.0 0.00 0.41 0.41 69 1014.9
20260905014603 75 0 0.0 0.0 0.00 0.41 0.41 68 1014.8
20260905014403 75 0 0.0 0.0 0.00 0.41 0.41 68 1014.8
20260905014203 75 0 0.0 0.0 0.00 0.41 0.41 68 1014.7
20260905014003 75 0 0.0 0.0 0.00 0.41 0.41 69 1014.7
20260905013803 75 183 0.0 1.0 0.00 0.41 0.41 68 1014.8
20260905013624 75 183 0.0 1.0 0.00 0.41 0.41 68 1014.8
20260905013403 75 183 0.0 1.0 0.00 0.41 0.41 68 1014.8
20260905013224 75 183 0.0 1.0 0.00 0.41 0.41 68 1014.7
20260905013003 75 183 0.0 1.0 0.00 0.41 0.41 68 1014.6
20260905012803 75 0 0.0 0.0 0.00 0.41 0.41 68 1014.7
20260905012603 75 0 0.0 0.0 0.00 0.41 0.41 68 1014.7
20260905012403 75 0 0.0 0.0 0.00 0.41 0.41 68 1014.7
20260905012203 75 0 0.0 0.0 0.00 0.41 0.41 68 1014.7
20260905012003 75 0 0.0 0.0 0.00 0.41 0.41 68 1014.6
20260905011803 75 0 0.0 0.0 0.00 0.41 0.41 68 1014.6
20260905011624 75 0 0.0 0.0 0.00 0.41 0.41 68 1014.7
20260905011403 75 0 0.0 0.0 0.00 0.41 0.41 68 1014.6
20260905011203 75 0 0.0 0.0 0.00 0.41 0.41 68 1014.5
20260905011003 75 0 0.0 0.0 0.00 0.41 0.41 68 1014.6
20260905010803 75 0 0.0 0.0 0.00 0.41 0.41 68 1014.6
20260905010603 75 0 0.0 0.0 0.00 0.41 0.41 68 1014.6
20260905010403 75 0 0.0 0.0 0.00 0.41 0.41 67 1014.5
20260905010203 76 0 0.0 0.0 0.00 0.41 0.41 68 1014.5
20260905010003 76 0 0.0 0.0 0.00 0.41 0.41 68 1014.5
20260905005803 75 0 0.0 0.0 0.00 0.41 0.41 68 1014.5
20260905005603 75 0 0.0 0.0 0.00 0.41 0.41 68 1014.5
20260905005403 76 0 0.0 0.0 0.00 0.41 0.41 68 1014.5
20260905005203 76 0 0.0 0.0 0.00 0.41 0.41 68 1014.5
20260905005003 76 0 0.0 0.0 0.00 0.41 0.41 68 1014.5
20260905004824 76 0 0.0 0.0 0.00 0.41 0.41 68 1014.4
20260905004624 76 0 0.0 0.0 0.00 0.41 0.41 68 1014.4
20260905004403 76 0 0.0 0.0 0.00 0.41 0.41 68 1014.4
20260905004203 76 0 0.0 0.0 0.00 0.41 0.41 68 1014.4
20260905004003 76 0 0.0 0.0 0.00 0.41 0.41 68 1014.3
20260905003803 76 0 0.0 0.0 0.00 0.41 0.41 68 1014.3
20260905003603 76 0 0.0 0.0 0.00 0.41 0.41 68 1014.3
20260905003403 76 0 0.0 0.0 0.00 0.41 0.41 68 1014.3
20260905003203 76 180 0.0 1.0 0.00 0.41 0.41 68 1014.3
20260905003003 76 183 0.0 4.0 0.00 0.41 0.41 67 1014.3
20260905002824 76 183 0.0 4.0 0.00 0.41 0.41 67 1014.3
20260905002624 77 183 0.0 4.0 0.00 0.41 0.41 67 1014.3
20260905002404 77 183 0.0 4.0 0.00 0.41 0.41 67 1014.3
20260905002203 77 183 0.0 4.0 0.00 0.41 0.41 67 1014.3
20260905002003 77 182 0.0 1.0 0.00 0.41 0.41 67 1014.3
20260905001824 77 182 0.0 1.0 0.00 0.41 0.41 67 1014.2
20260905001624 77 182 0.0 1.0 0.00 0.41 0.41 67 1014.3
20260905001403 77 182 0.0 1.0 0.00 0.41 0.41 67 1014.3
20260905001203 78 0 0.0 0.0 0.00 0.41 0.41 66 1014.3
20260905001003 78 0 0.0 0.0 0.00 0.41 0.41 66 1014.3
20260905000803 78 0 0.0 0.0 0.00 0.41 0.41 66 1014.3
20260905000603 78 0 0.0 0.0 0.00 0.41 0.41 66 1014.3
20260905000425 78 0 0.0 0.0 0.00 0.41 0.41 66 1014.3
20260905000226 78 0 0.0 0.0 0.00 0.41 0.41 66 1014.3
20260905000003 78 0 0.0 0.0 0.00 0.41 0.41 66 1014.3
20260904235803 78 0 0.0 0.0 0.00 0.41 0.41 65 1014.3
20260904235603 78 0 0.0 0.0 0.00 0.41 0.41 65 1014.3
20260904235403 78 0 0.0 0.0 0.00 0.41 0.41 65 1014.3
20260904235203 79 0 0.0 0.0 0.00 0.41 0.41 65 1014.3
20260904235003 79 0 0.0 0.0 0.00 0.41 0.41 65 1014.4
20260904234803 79 0 0.0 0.0 0.00 0.41 0.41 65 1014.4
20260904234603 79 0 0.0 0.0 0.00 0.41 0.41 65 1014.4
20260904234403 79 182 0.0 3.0 0.00 0.41 0.41 65 1014.3
20260904234203 79 182 0.0 3.0 0.00 0.41 0.41 65 1014.4
20260904234003 79 182 0.0 3.0 0.00 0.41 0.41 64 1014.4
20260904233803 79 182 0.0 3.0 0.00 0.41 0.41 64 1014.4
20260904233624 79 187 0.0 4.0 0.00 0.41 0.41 64 1014.3
20260904233403 80 187 1.0 8.0 0.00 0.41 0.41 64 1014.3
20260904233203 80 187 1.0 8.0 0.00 0.41 0.41 64 1014.3
20260904233003 80 187 1.0 8.0 0.00 0.41 0.41 64 1014.3
20260904232824 80 183 1.0 8.0 0.00 0.41 0.41 63 1014.3
20260904232603 80 180 1.0 8.0 0.00 0.41 0.41 63 1014.4
20260904232403 80 171 0.0 4.0 0.00 0.41 0.41 64 1014.3
20260904232203 80 177 0.0 4.0 0.00 0.41 0.41 63 1014.4
20260904232003 80 176 0.0 4.0 0.00 0.41 0.41 63 1014.4
20260904231803 80 176 0.0 5.0 0.00 0.41 0.41 63 1014.4
20260904231603 80 179 1.0 6.0 0.00 0.41 0.41 62 1014.4
20260904231403 80 182 1.0 8.0 0.00 0.41 0.41 63 1014.4
20260904231203 81 181 1.0 8.0 0.00 0.41 0.41 63 1014.3
20260904231003 81 180 1.0 8.0 0.00 0.41 0.41 63 1014.3
20260904230824 81 182 1.0 8.0 0.00 0.41 0.41 62 1014.3
20260904230603 81 183 1.0 8.0 0.00 0.41 0.41 62 1014.3
20260904230403 81 183 0.0 5.0 0.00 0.41 0.41 63 1014.3
20260904230203 81 186 1.0 5.0 0.00 0.41 0.41 63 1014.3
20260904230003 81 184 1.0 6.0 0.00 0.41 0.41 62 1014.2
20260904225803 81 185 1.0 6.0 0.00 0.41 0.41 62 1014.2
20260904225603 81 185 1.0 6.0 0.00 0.41 0.41 63 1014.2
20260904225403 81 185 1.0 6.0 0.00 0.41 0.41 62 1014.2
20260904225203 81 184 1.0 6.0 0.00 0.41 0.41 62 1014.1
20260904225003 81 186 1.0 6.0 0.00 0.41 0.41 62 1014.2
20260904224803 81 182 0.0 4.0 0.00 0.41 0.41 62 1014.2
20260904224603 81 183 0.0 1.0 0.00 0.41 0.41 62 1014.3
20260904224403 81 183 0.0 4.0 0.00 0.41 0.41 62 1014.2
20260904224203 81 184 0.0 4.0 0.00 0.41 0.41 62 1014.2
20260904224003 81 186 0.0 4.0 0.00 0.41 0.41 62 1014.2
20260904223803 81 186 0.0 4.0 0.00 0.41 0.41 62 1014.1
20260904223603 81 186 0.0 4.0 0.00 0.41 0.41 62 1014.1
20260904223403 81 185 0.0 4.0 0.00 0.41 0.41 63 1014.0
20260904223203 81 183 0.0 4.0 0.00 0.41 0.41 62 1014.0
20260904223003 81 178 1.0 7.0 0.00 0.41 0.41 63 1013.9
20260904222803 81 172 1.0 7.0 0.00 0.41 0.41 62 1013.8
20260904222603 81 176 1.0 7.0 0.00 0.41 0.41 62 1013.8
20260904222403 81 177 1.0 7.0 0.00 0.41 0.41 62 1013.7
20260904222224 81 176 1.0 7.0 0.00 0.41 0.41 62 1013.7
20260904222003 82 175 1.0 5.0 0.00 0.41 0.41 62 1013.6
20260904221803 82 181 0.0 5.0 0.00 0.41 0.41 62 1013.6
20260904221603 82 175 0.0 4.0 0.00 0.41 0.41 62 1013.6
20260904221403 82 168 0.0 3.0 0.00 0.41 0.41 62 1013.6
20260904221203 82 180 0.0 4.0 0.00 0.41 0.41 62 1013.6
20260904221003 82 179 0.0 4.0 0.00 0.41 0.41 61 1013.6
20260904220803 82 181 0.0 4.0 0.00 0.41 0.41 61 1013.7
20260904220604 82 183 1.0 5.0 0.00 0.41 0.41 61 1013.6
20260904220403 82 186 1.0 6.0 0.00 0.41 0.41 61 1013.6
20260904220203 83 187 1.0 6.0 0.00 0.41 0.41 61 1013.5
20260904220003 83 188 1.0 6.0 0.00 0.41 0.41 60 1013.5
20260904215803 83 189 0.0 6.0 0.00 0.41 0.41 60 1013.6
20260904215603 83 189 0.0 6.0 0.00 0.41 0.41 60 1013.6
20260904215403 84 190 0.0 4.0 0.00 0.41 0.41 60 1013.5
20260904215203 84 191 0.0 4.0 0.00 0.41 0.41 60 1013.5
20260904215003 84 0 0.0 0.0 0.00 0.41 0.41 60 1013.5
20260904214803 84 0 0.0 0.0 0.00 0.41 0.41 59 1013.4
20260904214603 84 0 0.0 0.0 0.00 0.41 0.41 60 1013.4
20260904214424 84 0 0.0 0.0 0.00 0.41 0.41 59 1013.3
20260904214203 83 0 0.0 0.0 0.00 0.41 0.41 60 1013.3
20260904214003 83 0 0.0 0.0 0.00 0.41 0.41 58 1013.2
20260904213803 83 0 0.0 0.0 0.00 0.41 0.41 60 1013.3
20260904213624 83 0 0.0 0.0 0.00 0.41 0.41 60 1013.3
20260904213403 83 0 0.0 0.0 0.00 0.41 0.41 60 1013.4
20260904213203 83 0 0.0 0.0 0.00 0.41 0.41 60 1013.4
20260904213003 83 0 0.0 0.0 0.00 0.41 0.41 61 1013.4
20260904212803 82 0 0.0 0.0 0.00 0.42 0.41 61 1013.5
20260904212603 82 0 0.0 0.0 0.00 0.42 0.41 60 1013.6
20260904212403 82 0 0.0 0.0 0.00 0.42 0.41 61 1013.5
20260904212203 82 0 0.0 0.0 0.00 0.42 0.41 60 1013.5
20260904212003 82 0 0.0 0.0 0.00 0.42 0.41 61 1013.5
20260904211803 82 0 0.0 0.0 0.00 0.42 0.41 63 1013.5
20260904211603 82 0 0.0 0.0 0.00 0.42 0.41 61 1013.5
20260904211403 81 0 0.0 0.0 0.00 0.42 0.41 62 1013.4
20260904211203 81 0 0.0 0.0 0.00 0.42 0.41 61 1013.4
20260904211003 81 0 0.0 0.0 0.00 0.42 0.41 61 1013.3
20260904210803 81 54 0.0 1.0 0.00 0.42 0.41 62 1013.4
20260904210603 80 54 0.0 1.0 0.00 0.42 0.41 63 1013.3
20260904210403 80 54 0.0 1.0 0.00 0.42 0.41 62 1013.4
20260904210203 80 54 0.0 1.0 0.00 0.42 0.41 62 1013.4
20260904210003 80 54 0.0 1.0 0.00 0.42 0.41 62 1013.5
20260904205803 80 0 0.0 0.0 0.00 0.42 0.41 63 1013.5
20260904205603 80 0 0.0 0.0 0.00 0.42 0.41 63 1013.5
20260904205403 80 0 0.0 0.0 0.00 0.42 0.41 63 1013.5
20260904205224 80 0 0.0 0.0 0.00 0.42 0.41 62 1013.6
20260904205003 80 0 0.0 0.0 0.00 0.42 0.41 61 1013.5
20260904204803 80 0 0.0 0.0 0.00 0.42 0.41 61 1013.6
20260904204603 80 0 0.0 0.0 0.00 0.42 0.41 63 1013.5
20260904204424 80 0 0.0 0.0 0.00 0.42 0.41 62 1013.7
20260904204203 80 0 0.0 0.0 0.00 0.42 0.41 62 1013.7
20260904204003 80 0 0.0 0.0 0.00 0.42 0.41 62 1013.7
20260904203803 80 0 0.0 0.0 0.00 0.42 0.41 62 1013.7
20260904203603 80 0 0.0 0.0 0.00 0.42 0.41 63 1013.7
20260904203403 79 0 0.0 0.0 0.00 0.42 0.41 63 1013.7
20260904203224 79 0 0.0 0.0 0.00 0.42 0.41 63 1013.7
20260904203003 79 0 0.0 0.0 0.00 0.42 0.41 63 1013.6
20260904202803 79 0 0.0 0.0 0.00 0.42 0.41 64 1013.7
20260904202603 79 0 0.0 0.0 0.00 0.42 0.41 64 1013.6
20260904202403 79 0 0.0 0.0 0.00 0.42 0.41 63 1013.6
20260904202203 79 0 0.0 0.0 0.00 0.42 0.41 63 1013.5
20260904202003 79 0 0.0 0.0 0.00 0.42 0.41 63 1013.6
20260904201803 79 0 0.0 0.0 0.00 0.42 0.41 63 1013.5
20260904201603 79 0 0.0 0.0 0.00 0.42 0.41 63 1013.5
20260904201403 79 0 0.0 0.0 0.00 0.42 0.41 63 1013.5
20260904201224 79 0 0.0 0.0 0.00 0.42 0.41 63 1013.4
20260904201003 78 0 0.0 0.0 0.00 0.42 0.41 63 1013.4
20260904200803 78 0 0.0 0.0 0.00 0.42 0.41 62 1013.5
20260904200603 78 0 0.0 0.0 0.00 0.42 0.41 63 1013.6
20260904200403 78 0 0.0 0.0 0.00 0.42 0.41 63 1013.8
20260904200203 78 0 0.0 0.0 0.00 0.42 0.41 63 1013.8
20260904200003 78 0 0.0 0.0 0.00 0.42 0.41 64 1013.9
20260904195803 78 0 0.0 0.0 0.00 0.42 0.41 64 1013.9
20260904195603 78 0 0.0 0.0 0.00 0.42 0.41 63 1013.9
20260904195403 77 0 0.0 0.0 0.00 0.42 0.41 64 1013.9
20260904195224 77 0 0.0 0.0 0.00 0.42 0.41 64 1013.7
20260904195003 77 0 0.0 0.0 0.00 0.42 0.41 64 1013.7
20260904194824 77 0 0.0 0.0 0.00 0.42 0.41 64 1013.8
20260904194603 77 0 0.0 0.0 0.00 0.42 0.41 63 1013.8
20260904194403 77 0 0.0 0.0 0.00 0.42 0.41 63 1013.8
20260904194203 77 0 0.0 0.0 0.00 0.42 0.41 64 1013.8
20260904194003 76 0 0.0 0.0 0.00 0.42 0.41 65 1013.9